Theta_e
326 318 322 319 310 305 299 299 306 307 310 315 319 317 316 317 316 311 318 328 329 331 341 343 345 348 349 349 348 347 345 344 344 344 344 345 345 345 345 343 342 342 342 342 343 342 342 340 340
319 317 323 319 307 302 303 304 301 305 311 315 317 316 316 316 320 318 322 327 331 335 341 341 343 347 349 349 347 347 345 344 346 347 345 343 344 344 345 343 341 343 343 343 343 342 340 339 339
313 317 319 314 308 303 305 309 308 305 308 311 313 314 317 317 315 317 323 326 333 338 341 342 342 347 349 349 348 347 346 347 346 345 343 341 341 340 339 338 337 337 337 336 336 335 334 332 332
314 319 318 309 305 309 310 313 307 309 312 312 314 312 314 315 313 314 322 328 336 339 342 341 343 346 348 348 347 347 346 347 345 343 340 339 337 334 333 332 332 332 332 331 330 329 327 326 327
318 318 310 307 307 311 314 315 311 311 313 315 313 313 313 311 312 314 323 330 335 338 341 341 342 345 346 346 346 346 345 343 341 339 336 333 332 329 328 327 327 326 326 326 325 325 323 323 322
314 315 307 304 308 313 315 317 315 313 315 316 311 314 316 310 309 316 324 331 336 336 339 340 336 338 341 342 342 341 339 338 337 334 331 329 328 325 325 324 323 323 323 323 322 320 319 317 316
312 310 307 307 307 310 314 319 315 315 316 316 317 313 317 310 311 317 325 332 335 336 333 335 337 335 333 335 336 336 336 335 333 330 327 326 323 322 322 321 320 321 322 319 319 317 315 313 313
309 311 306 308 306 307 316 317 318 316 316 319 319 313 314 320 311 318 324 330 333 332 330 331 332 334 335 332 328 329 329 329 328 326 323 321 320 320 320 320 319 319 318 317 316 314 312 310 310
308 302 301 305 307 309 312 313 318 314 316 312 313 316 309 305 313 317 319 323 327 329 330 329 328 330 332 332 325 322 323 323 322 320 318 316 314 314 313 316 316 316 316 315 314 311 309 306 306
300 296 298 306 310 310 314 313 315 310 310 309 311 312 304 306 311 313 314 315 320 323 327 329 329 329 328 324 323 323 320 319 318 317 314 311 310 311 311 312 313 312 313 312 310 308 305 305 309
298 295 300 302 307 310 310 309 311 308 309 312 313 315 308 305 309 312 315 316 317 320 321 323 325 324 322 319 320 318 317 317 315 313 311 310 309 309 309 309 308 308 307 307 307 307 309 307 308
292 297 298 301 304 304 303 307 304 306 310 316 314 314 311 305 307 310 313 315 316 316 316 317 319 318 317 315 315 314 312 311 309 309 309 309 309 308 307 307 307 308 308 307 308 308 308 307 306
292 294 296 299 300 301 301 300 302 303 306 308 307 306 307 307 307 310 313 315 315 312 313 313 314 314 312 311 311 310 309 308 308 308 308 308 307 307 307 307 307 307 307 307 307 307 306 306 306
297 297 296 298 298 299 296 297 300 301 304 304 305 305 305 306 308 308 308 310 311 310 310 311 310 310 309 308 308 307 308 308 308 308 308 308 308 307 306 306 306 306 306 306 307 306 306 306 305
296 292 296 297 298 297 297 294 295 300 302 303 304 305 305 305 306 306 308 308 308 309 310 308 308 308 306 305 306 306 307 307 307 307 308 307 307 307 306 306 305 305 306 305 305 304 305 305 304
292 291 289 295 296 297 297 293 302 303 302 301 303 304 304 305 305 307 307 308 308 309 308 308 305 305 304 304 305 305 306 306 307 306 307 307 306 306 306 305 304 305 305 304 304 304 303 303 303
291 285 287 290 295 292 294 294 299 297 298 299 300 301 301 302 303 304 306 307 306 307 307 307 305 304 304 304 304 305 305 305 305 305 305 306 306 306 305 305 305 304 304 303 302 302 302 302 302
285 286 287 287 292 290 291 290 296 298 296 297 299 300 301 301 301 304 303 305 304 305 306 306 305 305 305 305 304 304 304 304 304 304 304 306 305 305 305 303 303 303 303 302 301 301 300 300 299
289 287 286 290 290 289 290 291 293 296 296 295 296 297 298 299 302 304 304 304 304 304 303 304 304 305 303 303 302 302 301 301 302 303 304 305 305 304 304 304 303 303 302 301 301 300 298 299 298
288 285 285 289 289 287 288 288 291 293 293 294 294 295 297 298 300 301 300 302 303 303 302 303 303 303 303 302 302 301 301 301 303 303 303 303 304 304 304 303 302 302 300 300 299 299 297 298 297
285 284 285 285 287 288 286 285 289 293 294 294 295 296 296 297 297 299 298 300 302 302 302 301 302 302 301 301 302 301 302 301 300 300 300 302 304 305 303 302 302 301 301 299 298 298 298 296 295
281 287 286 285 283 280 284 280 287 291 290 290 292 294 294 296 297 297 298 298 300 301 303 302 302 302 302 302 301 298 297 296 298 299 300 302 303 303 302 302 301 300 299 298 298 298 298 297 294
284 286 285 285 283 282 282 279 286 288 287 290 293 295 296 297 296 296 297 297 299 302 302 302 302 302 301 301 301 299 299 299 300 299 301 301 302 302 301 301 301 299 298 299 297 297 296 296 295
284 283 282 282 281 276 282 280 284 289 290 291 293 294 295 296 296 296 297 297 298 301 303 303 302 301 301 301 301 300 299 299 298 299 300 300 301 301 301 300 299 299 298 298 298 297 296 295 294
284 282 277 275 275 276 283 280 284 290 291 291 293 294 294 296 296 297 296 294 295 297 300 301 301 300 301 301 301 300 300 300 299 300 300 299 299 299 299 299 299 298 298 298 297 296 296 295 293
280 282 279 275 276 279 278 277 284 290 292 292 291 292 294 295 295 295 295 294 294 296 298 299 300 299 300 300 300 300 301 300 300 301 301 300 300 300 300 300 299 298 298 297 297 296 295 294 294
280 278 284 280 274 277 281 282 286 290 291 291 291 292 293 292 293 292 293 292 292 294 296 298 298 299 299 299 299 299 300 299 299 300 301 300 300 299 300 300 298 298 297 296 295 295 294 293 294
282 285 277 279 275 274 279 281 284 288 289 287 287 287 288 289 289 290 290 291 292 293 295 297 298 298 298 299 300 299 300 300 300 299 299 300 300 300 299 299 298 297 296 295 294 294 295 293 293
279 279 280 281 280 277 276 282 285 285 286 285 285 286 287 288 288 289 289 290 291 292 293 294 296 297 297 298 299 299 299 299 300 299 299 299 300 299 299 298 298 296 294 294 294 295 294 293 293
283 281 282 278 276 277 278 281 286 285 285 286 286 286 287 287 287 287 288 289 290 290 291 291 293 295 296 297 298 298 298 299 299 298 299 300 298 298 298 298 297 296 295 295 294 293 293 292 291
Wind_Speed
5 3 2 4 6 5 10 6 5 5 4 2 4 5 7 7 6 1 3 10 8 16 16 18 15 16 16 18 16 15 15 14 13 11 11 11 11 13 12 11 8 7 6 4 4 6 8 7 7
4 2 4 2 8 11 11 9 12 13 3 3 4 6 7 9 3 1 6 13 12 16 15 17 15 16 16 18 16 15 14 13 13 14 12 11 8 10 11 11 9 9 9 9 10 10 9 8 8
3 3 5 5 10 16 13 9 12 4 7 6 5 4 4 3 2 1 3 14 17 16 15 15 16 15 17 18 18 16 14 13 14 14 13 11 8 10 10 10 9 7 8 7 8 9 8 6 5
4 4 4 11 22 17 17 10 5 4 3 6 6 7 4 4 3 2 7 15 17 16 15 14 14 15 14 16 17 18 17 15 14 14 13 11 11 11 11 10 10 9 9 8 8 8 7 7 7
3 3 10 14 25 22 19 18 9 9 6 7 7 10 6 4 6 8 13 14 18 16 14 16 16 16 17 17 16 14 14 15 14 13 13 13 13 11 11 10 10 9 9 9 9 8 8 7 6
5 4 11 19 24 23 22 17 17 17 17 12 7 16 11 3 9 10 14 17 17 16 11 10 11 12 11 11 11 11 13 12 13 13 14 14 13 12 11 10 10 9 9 9 8 8 7 6 5
9 10 19 25 26 25 23 16 19 17 18 17 8 11 5 9 11 11 14 16 17 15 10 9 11 10 10 9 9 10 12 13 14 15 15 13 12 11 11 10 9 9 9 8 8 8 7 5 4
6 6 16 20 21 32 23 20 17 15 23 3 6 9 13 3 12 11 12 13 15 15 10 9 8 9 9 9 9 11 11 12 13 13 13 11 10 9 10 9 9 9 9 7 7 7 6 4 4
3 10 15 26 26 23 3 11 17 4 13 6 10 10 2 4 12 13 13 13 14 14 15 12 11 11 12 13 10 10 10 11 12 13 12 12 8 9 10 8 10 9 9 8 7 6 5 3 2
12 13 22 21 20 22 18 15 17 10 14 14 13 11 5 10 14 17 19 19 19 19 19 16 15 16 14 10 13 12 11 10 10 10 12 7 8 7 7 9 10 9 8 8 7 5 3 3 2
7 17 21 21 20 18 19 15 12 16 23 19 21 18 13 14 16 18 19 20 23 18 15 17 16 16 15 11 10 7 7 7 7 11 10 8 7 8 6 6 6 6 5 4 4 3 1 2 3
13 15 23 18 15 11 18 14 13 20 25 21 14 17 11 17 18 20 21 20 21 21 21 19 18 16 15 10 9 10 8 8 7 9 10 8 6 7 6 5 6 5 4 5 3 2 2 1 2
14 18 14 17 19 17 12 16 19 15 21 18 16 10 16 16 19 20 20 20 17 19 20 20 19 17 14 14 10 10 10 9 10 9 10 8 7 7 7 6 5 5 4 4 3 3 3 2 2
4 13 18 14 18 14 13 20 11 11 27 22 22 24 22 22 23 19 21 21 20 20 21 20 20 18 16 14 14 11 10 10 9 9 9 10 7 7 7 6 5 5 4 4 3 3 2 1 2
7 13 17 16 17 12 5 20 23 26 25 23 22 22 20 22 21 22 22 23 23 20 19 21 20 18 17 17 14 11 10 10 10 9 11 10 9 9 8 6 6 5 4 5 4 4 3 2 2
6 5 9 3 8 6 11 28 13 17 18 21 23 20 19 21 23 24 22 21 20 19 20 20 16 19 19 17 13 11 11 10 9 9 9 10 10 10 8 7 6 5 4 4 3 3 2 2 2
9 16 19 14 10 5 17 20 9 4 9 16 16 15 14 16 18 20 22 20 19 20 20 21 21 22 21 18 14 13 13 10 9 9 9 12 11 10 7 6 6 7 5 4 3 3 2 2 2
17 17 15 15 5 8 15 27 20 16 13 15 16 18 19 19 20 20 22 22 19 21 21 20 18 20 19 13 12 10 10 10 9 9 9 13 10 11 8 6 7 7 5 5 3 4 2 0 2
16 15 22 13 3 6 19 28 23 21 23 22 22 23 24 24 25 19 19 22 22 20 21 22 22 21 16 13 12 11 11 10 10 9 13 14 12 12 10 7 8 7 6 6 6 3 3 2 3
25 24 27 17 10 6 20 35 24 21 27 24 24 24 26 26 24 21 19 18 22 23 21 22 23 21 19 14 12 9 10 10 10 10 12 11 12 13 11 10 8 9 6 7 6 5 3 2 3
25 28 25 23 8 15 14 33 21 20 28 25 23 24 25 25 23 20 17 21 20 21 24 23 22 23 20 18 13 8 10 7 8 9 8 11 14 13 12 11 9 9 7 7 7 6 6 4 1
24 19 21 19 9 12 3 21 19 18 15 13 15 19 22 21 18 17 16 19 21 22 18 21 22 22 21 23 18 20 16 13 10 12 10 10 14 14 12 12 10 9 7 7 7 6 5 4 4
13 7 15 16 17 11 16 10 11 4 5 13 19 19 16 13 13 15 16 17 19 17 19 19 21 22 22 23 21 17 16 12 8 9 14 13 12 13 13 12 12 10 7 8 9 8 7 4 4
15 8 7 4 5 9 17 14 37 15 11 10 7 6 2 1 3 6 7 10 14 14 15 17 20 21 21 22 22 23 21 17 12 14 12 10 10 10 13 12 11 10 9 10 9 8 8 6 4
12 11 6 7 7 13 3 14 28 8 11 11 8 5 5 5 5 8 6 6 9 13 16 15 19 21 22 23 23 23 21 19 19 18 13 14 10 9 12 13 11 10 10 10 9 9 8 8 7
18 16 8 13 11 14 6 15 11 6 12 11 7 9 11 7 5 6 6 4 5 10 14 16 16 17 18 19 21 18 20 13 13 16 13 12 12 12 15 13 12 13 12 11 10 7 7 8 7
9 16 18 6 2 4 9 12 11 14 14 7 7 4 4 7 8 10 10 9 4 5 10 14 16 16 18 19 17 17 16 16 14 15 13 12 12 10 14 14 13 13 13 12 11 8 9 8 7
10 6 8 7 9 12 13 17 13 7 5 5 9 10 11 12 13 13 13 13 10 7 3 8 12 16 17 18 17 16 17 17 15 13 15 14 13 13 15 15 15 14 13 13 12 9 10 9 7
10 10 6 3 6 6 7 6 7 4 7 9 11 12 12 13 14 14 14 14 14 11 7 2 6 10 12 14 14 15 15 16 15 14 15 15 15 15 15 16 15 14 13 13 12 11 11 11 10
10 14 18 7 8 6 6 4 6 10 10 11 11 11 13 14 13 14 15 15 16 15 13 9 4 5 9 11 13 13 13 14 14 14 15 14 14 14 14 14 14 14 14 14 14 13 11 13 12
Wind_Direction
304 336 219 221 244 241 249 242 269 229 222 167 140 217 236 300 214 321 115 165 171 162 168 173 177 177 182 171 170 172 173 173 173 181 190 193 199 208 199 175 178 184 189 185 148 113 102 90 83
319 236 225 251 252 246 248 238 234 241 236 167 193 220 240 257 250 198 163 175 173 163 169 176 172 179 182 168 167 172 174 177 170 151 141 130 125 116 109 125 108 94 108 98 90 91 83 74 73
234 238 260 245 245 245 258 228 255 261 230 228 231 251 270 227 197 261 135 163 168 166 173 175 169 176 180 169 169 172 178 178 167 158 143 125 131 112 108 108 113 115 107 96 96 91 89 82 69
184 187 214 241 249 241 262 258 227 188 178 216 250 244 208 265 176 142 155 165 168 169 177 157 174 170 167 165 168 172 178 181 156 144 130 143 137 135 133 129 125 119 116 111 105 105 104 98 93
188 234 241 243 251 255 247 260 241 243 267 229 201 259 253 201 175 156 162 174 176 172 173 172 183 179 178 181 182 168 153 146 141 137 137 152 147 142 139 135 129 127 124 123 119 108 100 91 88
207 255 232 248 255 244 244 251 241 246 259 245 229 253 259 84 187 176 172 177 181 171 164 159 153 151 148 149 151 147 145 146 154 156 155 156 149 146 141 135 130 132 130 120 115 109 100 90 81
238 227 244 256 263 264 250 244 239 242 249 244 243 244 248 219 197 179 178 176 179 172 165 162 161 154 143 144 150 149 153 156 158 161 156 154 147 144 140 134 133 134 126 116 111 101 94 80 73
233 245 246 248 258 263 261 245 248 239 248 275 211 238 246 221 161 168 173 179 180 179 176 173 160 157 159 154 148 149 152 155 153 148 137 133 132 134 126 122 131 129 121 121 113 101 90 78 57
227 238 237 246 250 249 253 240 239 274 253 212 196 245 69 116 150 160 172 184 186 187 187 181 174 173 176 174 156 139 142 141 130 127 130 143 153 155 159 93 128 129 130 126 114 92 75 64 86
217 230 237 243 257 263 263 252 251 240 225 235 230 217 165 161 178 182 187 192 195 193 190 186 185 185 180 177 168 171 166 170 169 168 168 168 160 159 147 124 121 125 126 123 116 101 97 261 325
224 243 243 254 258 268 263 240 242 241 252 244 246 244 201 188 196 203 206 202 201 195 191 191 188 184 182 181 175 176 178 177 175 174 173 169 160 159 167 150 156 153 171 161 166 164 107 44 327
241 246 256 261 263 248 246 252 240 240 253 257 267 263 217 208 205 208 212 211 204 199 196 191 190 186 187 181 186 179 180 180 175 177 175 172 172 172 172 171 163 166 171 158 165 148 128 210 283
235 254 261 259 264 255 258 243 248 245 255 259 258 237 233 223 222 220 218 220 210 207 201 194 191 190 187 188 184 181 184 184 177 174 180 184 175 177 172 168 170 162 164 170 169 161 176 190 258
319 257 264 270 263 253 245 252 244 230 247 256 254 245 239 233 225 218 217 217 209 210 206 195 196 192 186 189 186 180 183 181 177 179 181 188 183 177 175 170 167 166 174 166 172 178 181 205 266
276 281 272 248 247 243 220 263 241 241 249 255 253 248 246 236 236 224 218 216 212 209 203 200 194 190 189 190 185 182 184 183 182 182 181 183 187 182 174 171 169 167 164 167 171 178 188 221 255
256 240 268 206 227 227 194 256 267 247 246 243 251 255 254 246 237 236 229 222 217 214 204 197 192 190 189 190 186 184 185 186 184 180 176 185 189 185 180 171 170 163 171 183 185 185 180 217 261
224 259 240 273 199 161 209 268 248 206 224 245 252 251 247 249 236 235 231 225 216 211 206 201 194 193 191 188 185 185 187 188 186 179 177 183 186 187 183 178 164 166 170 181 190 173 191 212 265
236 243 248 251 184 226 241 256 260 255 250 250 260 260 255 250 243 229 222 219 209 205 205 200 195 195 188 182 184 183 182 188 186 184 183 179 184 183 187 170 168 172 174 169 184 183 152 128 318
264 264 263 269 253 250 254 265 262 268 267 259 255 256 257 253 249 240 221 214 213 207 202 198 192 191 181 181 180 183 188 181 185 187 186 181 181 182 185 177 172 181 181 179 179 169 172 152 336
241 254 259 264 252 260 277 275 273 261 261 252 250 250 250 253 250 236 218 205 205 201 199 195 195 188 186 181 182 181 180 196 189 184 186 181 178 183 183 178 181 186 171 175 183 192 160 124 355
235 239 250 253 278 254 283 279 275 249 240 254 249 247 250 248 250 244 217 208 205 206 201 196 192 186 187 180 173 166 157 169 186 191 177 183 184 185 185 182 181 181 181 180 185 193 190 159 128
239 231 242 248 241 259 244 284 279 277 239 233 243 238 239 245 246 248 235 212 207 209 200 197 191 189 185 179 179 177 178 179 192 182 180 181 185 186 182 182 182 183 186 179 182 190 186 171 165
237 172 211 225 233 277 223 259 268 99 253 257 247 244 252 250 250 250 240 228 217 204 198 195 191 189 186 185 184 182 189 189 171 176 171 179 182 185 183 183 181 185 186 186 181 180 182 191 172
134 115 100 129 198 239 233 217 279 265 279 263 285 251 191 113 228 246 257 245 226 209 195 192 192 191 187 187 187 187 189 183 172 172 177 179 177 181 188 184 186 185 186 185 184 182 180 181 174
193 162 186 208 202 242 174 201 258 321 289 261 272 246 286 295 299 296 283 229 218 206 197 191 192 192 188 188 191 190 189 183 182 177 180 175 175 184 185 183 184 186 188 185 177 180 183 183 186
197 190 205 226 216 240 165 226 246 256 267 294 299 279 283 296 344 5 359 323 227 207 199 197 194 192 189 189 192 192 191 187 189 185 179 182 184 185 179 184 185 187 186 183 181 184 184 184 193
171 213 236 286 43 272 214 251 266 248 264 316 357 9 36 48 34 30 23 16 360 209 207 202 196 192 189 190 189 191 191 189 189 179 180 182 180 177 177 179 182 186 186 184 182 188 185 189 193
217 160 182 217 222 227 245 260 256 235 214 54 50 49 52 47 39 34 31 25 20 5 244 209 203 200 193 190 188 189 190 189 186 176 178 178 178 172 175 182 186 186 185 183 185 186 190 190 197
177 201 221 262 232 237 255 235 5 39 85 83 66 59 55 52 41 36 37 33 33 33 19 220 207 198 196 195 192 190 190 189 184 184 183 182 176 177 178 179 182 181 182 185 189 193 188 197 201
261 232 203 207 195 236 310 268 58 86 83 86 76 63 53 51 46 38 37 33 34 32 29 25 354 216 202 199 195 196 193 190 190 190 186 179 179 179 180 180 183 185 188 188 193 193 195 200 204